sat.trackr.live / text

‹ back to catalog

STARLINK-4528

NORAD 53399 · 2022-097M

PAYLOAD ACTIVE UNKNOWN

§ Identity

Operator
Country
US
Launch date
2022-08-10
Launch site
AFETR
Launch vehicle
Mass (kg)
RCS (m²)

Purposes: comms

External: N2YO · Heavens-Above · Gunter

§ Orbital elements

Epoch: 2026-05-25T03:09:08.258976Z

Period
95.44 min
Inclination
53.2131°
Eccentricity
0.0001329
Mean motion
15.08842128 rev/d
Perigee alt
538.8 km
Apogee alt
540.7 km
Semi-major
6,917.9 km
B*
5.9262e-6
RAAN
140.9613°
Arg perigee
60.5008°
Mean anomaly
299.6116°
Rev number
21,005

§ Raw data

STARLINK-45281 53399U 22097M   26145.13134559 -.00000194  00000+0  59262-5 0  99912 53399  53.2131 140.9613 0001329  60.5008 299.6116 15.08842128210055

JSON: /api/v1/satellites/53399 · /tle

For live sub-satellite position, see the globe view (requires WebGL).

§ Visibility from observer

Set your observer location to see the next 7 days of passes ≥ 10°. The values pass through the URL so the page stays shareable.

No JS? Fill the form by hand. The geolocation button needs JavaScript.